Location: Daytona Beach
(29.2106°N, 81.0231°W)
Time: 16:53:26
(UTC-04:00)

RS-15 - Pass Details

Date: 28 September 2021
Orbit: 1884 x 2160 km, 64.8° (Epoch: 26 October)

Event Time Altitude Azimuth Distance (km) Brightness Sun altitude
Rises 23:55:18 0° 338° (NNW) 5,631 10.9 -56.9°
Reaches altitude 10° 23:59:24 10° 349° (NNW) 4,651 10.3 -57.5°
Enters shadow 00:05:25 26° 15° (NNE) 3,523 9.4 -58.3°
